| time (UTC) | temp C | wind direction | speed KPH | gust KPH | rain 1hr cm | rain 24hr cm | rain mn cm | humidity % | barometer mb |
| 20260504205526 | 26 | 338 | 3.2 | 4.8 | 0.00 | 0.00 | 0.00 | 40 | 1010.6 |
| 20260504205023 | 26 | 263 | 8.0 | 12.9 | 0.00 | 0.00 | 0.00 | 40 | 1010.9 |
| 20260504204521 | 27 | 278 | 4.8 | 6.4 | 0.00 | 0.00 | 0.00 | 40 | 1010.7 |
| 20260504204020 | 27 | 226 | 4.8 | 9.7 | 0.00 | 0.00 | 0.00 | 40 | 1010.9 |
| 20260504203518 | 27 | 229 | 3.2 | 3.2 | 0.00 | 0.00 | 0.00 | 41 | 1011.0 |
| 20260504203015 | 26 | 261 | 3.2 | 4.8 | 0.00 | 0.00 | 0.00 | 43 | 1011.2 |
| 20260504202510 | 27 | 238 | 3.2 | 3.2 | 0.00 | 0.00 | 0.00 | 40 | 1011.1 |
| 20260504202007 | 27 | 234 | 3.2 | 3.2 | 0.00 | 0.00 | 0.00 | 42 | 1011.3 |
| 20260504201504 | 27 | 286 | 3.2 | 4.8 | 0.00 | 0.00 | 0.00 | 40 | 1011.5 |
| 20260504201002 | 27 | 210 | 4.8 | 9.7 | 0.00 | 0.00 | 0.00 | 41 | 1011.3 |
| 20260504200458 | 27 | 283 | 8.0 | 11.3 | 0.00 | 0.00 | 0.00 | 39 | 1011.6 |
| 20260504195955 | 27 | 308 | 9.7 | 12.9 | 0.00 | 0.00 | 0.00 | 39 | 1011.6 |
| 20260504195451 | 27 | 326 | 4.8 | 9.7 | 0.00 | 0.00 | 0.00 | 38 | 1011.6 |
| 20260504194948 | 27 | 266 | 3.2 | 4.8 | 0.00 | 0.00 | 0.00 | 40 | 1011.6 |
| 20260504194444 | 27 | 239 | 3.2 | 4.8 | 0.00 | 0.00 | 0.00 | 39 | 1011.5 |
| 20260504193940 | 27 | 225 | 4.8 | 6.4 | 0.00 | 0.00 | 0.00 | 39 | 1011.8 |
| 20260504193437 | 27 | 245 | 6.4 | 6.4 | 0.00 | 0.00 | 0.00 | 40 | 1011.7 |
| 20260504192936 | 26 | 348 | 3.2 | 4.8 | 0.00 | 0.00 | 0.00 | 41 | 1012.0 |
| 20260504192433 | 26 | 318 | 8.0 | 11.3 | 0.00 | 0.00 | 0.00 | 40 | 1011.9 |
| 20260504191932 | 27 | 269 | 14.5 | 17.7 | 0.00 | 0.00 | 0.00 | 39 | 1012.1 |
| 20260504191429 | 27 | 225 | 3.2 | 4.8 | 0.00 | 0.00 | 0.00 | 40 | 1012.1 |
| 20260504190924 | 27 | 245 | 4.8 | 6.4 | 0.00 | 0.00 | 0.00 | 41 | 1012.0 |
| 20260504190420 | 26 | 228 | 1.6 | 1.6 | 0.00 | 0.00 | 0.00 | 44 | 1012.2 |
| 20260504185917 | 26 | 334 | 8.0 | 12.9 | 0.00 | 0.00 | 0.00 | 44 | 1012.3 |
| 20260504185414 | 26 | 312 | 8.0 | 11.3 | 0.00 | 0.00 | 0.00 | 45 | 1012.2 |
| 20260504184910 | 26 | 209 | 3.2 | 4.8 | 0.00 | 0.00 | 0.00 | 45 | 1012.3 |
| 20260504184406 | 26 | 280 | 3.2 | 6.4 | 0.00 | 0.00 | 0.00 | 44 | 1012.3 |
| 20260504183902 | 26 | 306 | 3.2 | 4.8 | 0.00 | 0.00 | 0.00 | 43 | 1012.2 |
| 20260504183400 | 26 | 239 | 4.8 | 4.8 | 0.00 | 0.00 | 0.00 | 45 | 1012.2 |
| 20260504182857 | 26 | 214 | 3.2 | 4.8 | 0.00 | 0.00 | 0.00 | 43 | 1012.4 |
| 20260504182354 | 26 | 225 | 4.8 | 4.8 | 0.00 | 0.00 | 0.00 | 43 | 1012.4 |
| 20260504181851 | 25 | 298 | 3.2 | 4.8 | 0.00 | 0.00 | 0.00 | 45 | 1012.2 |
| 20260504181348 | 26 | 271 | 9.7 | 12.9 | 0.00 | 0.00 | 0.00 | 44 | 1012.4 |
| 20260504180847 | 26 | 134 | 3.2 | 4.8 | 0.00 | 0.00 | 0.00 | 45 | 1012.7 |
| 20260504180345 | 26 | 204 | 4.8 | 6.4 | 0.00 | 0.00 | 0.00 | 42 | 1012.9 |
| 20260504175843 | 26 | 211 | 3.2 | 4.8 | 0.00 | 0.00 | 0.00 | 43 | 1012.8 |
| 20260504175339 | 26 | 334 | 1.6 | 3.2 | 0.00 | 0.00 | 0.00 | 44 | 1012.9 |
| 20260504174838 | 26 | 309 | 3.2 | 3.2 | 0.00 | 0.00 | 0.00 | 48 | 1012.9 |
| 20260504174335 | 25 | 228 | 3.2 | 3.2 | 0.00 | 0.00 | 0.00 | 48 | 1012.9 |
| 20260504173832 | 25 | 288 | 3.2 | 9.7 | 0.00 | 0.00 | 0.00 | 47 | 1013.0 |
| 20260504173328 | 25 | 227 | 3.2 | 3.2 | 0.00 | 0.00 | 0.00 | 48 | 1013.1 |
| 20260504172826 | 25 | 261 | 3.2 | 4.8 | 0.00 | 0.00 | 0.00 | 48 | 1013.0 |
| 20260504172322 | 25 | 296 | 4.8 | 9.7 | 0.00 | 0.00 | 0.00 | 46 | 1013.1 |
| 20260504171818 | 25 | 236 | 4.8 | 6.4 | 0.00 | 0.00 | 0.00 | 47 | 1013.4 |
| 20260504171315 | 25 | 329 | 8.0 | 11.3 | 0.00 | 0.00 | 0.00 | 46 | 1013.5 |
| 20260504170812 | 25 | 356 | 8.0 | 11.3 | 0.00 | 0.00 | 0.00 | 47 | 1013.5 |
| 20260504170309 | 25 | 244 | 4.8 | 6.4 | 0.00 | 0.00 | 0.00 | 46 | 1013.6 |
| 20260504160222 | 24 | 233 | 3.2 | 4.8 | 0.00 | 0.00 | 0.00 | 52 | 1014.5 |
| 20260504150647 | 23 | 215 | 3.2 | 3.2 | 0.00 | 0.00 | 0.00 | 56 | 1014.5 |
| 20260504150144 | 22 | 301 | 6.4 | 6.4 | 0.00 | 0.00 | 0.00 | 55 | 1014.6 |
| 20260504141113 | 20 | 235 | 4.8 | 9.7 | 0.00 | 0.00 | 0.00 | 65 | 1014.6 |
| 20260504140610 | 19 | 243 | 1.6 | 3.2 | 0.00 | 0.00 | 0.00 | 64 | 1014.9 |
| 20260504140105 | 20 | 203 | 1.6 | 3.2 | 0.00 | 0.00 | 0.00 | 64 | 1014.9 |
| 20260504130534 | 16 | 224 | 1.6 | 1.6 | 0.00 | 0.00 | 0.00 | 74 | 1014.8 |
| 20260504110421 | 11 | 243 | 0.0 | 0.0 | 0.00 | 0.00 | 0.00 | 83 | 1014.3 |
| 20260504100338 | 12 | 243 | 0.0 | 0.0 | 0.00 | 0.00 | 0.00 | 79 | 1014.3 |
| 20260504081731 | 12 | 243 | 0.0 | 0.0 | 0.00 | 0.00 | 0.00 | 72 | 1014.4 |
| 20260504081228 | 12 | 243 | 1.6 | 1.6 | 0.00 | 0.00 | 0.00 | 72 | 1014.4 |
| 20260504080724 | 12 | 243 | 0.0 | 0.0 | 0.00 | 0.00 | 0.00 | 72 | 1014.5 |
| 20260504080221 | 12 | 243 | 0.0 | 0.0 | 0.00 | 0.00 | 0.00 | 73 | 1014.6 |
| 20260504070148 | 12 | 243 | 1.6 | 1.6 | 0.00 | 0.00 | 0.00 | 70 | 1015.1 |
| 20260504060109 | 12 | 241 | 0.0 | 0.0 | 0.00 | 0.00 | 0.00 | 71 | 1015.6 |
| 20260504050537 | 12 | 222 | 0.0 | 0.0 | 0.00 | 0.00 | 0.00 | 73 | 1015.6 |
| 20260504045531 | 12 | 222 | 0.0 | 0.0 | 0.00 | 0.00 | 0.00 | 74 | 1015.6 |
| 20260504045026 | 12 | 222 | 0.0 | 0.0 | 0.00 | 0.00 | 0.00 | 73 | 1015.6 |
| 20260504044524 | 12 | 222 | 0.0 | 0.0 | 0.00 | 0.00 | 0.00 | 73 | 1015.7 |
| 20260504044021 | 12 | 222 | 0.0 | 0.0 | 0.00 | 0.00 | 0.00 | 73 | 1015.6 |
| 20260504043518 | 12 | 222 | 0.0 | 0.0 | 0.00 | 0.00 | 0.00 | 73 | 1015.7 |
| 20260504043015 | 12 | 222 | 0.0 | 0.0 | 0.00 | 0.00 | 0.00 | 73 | 1015.7 |
| 20260504042512 | 12 | 222 | 0.0 | 0.0 | 0.00 | 0.00 | 0.00 | 73 | 1015.8 |
| 20260504042009 | 12 | 222 | 0.0 | 0.0 | 0.00 | 0.00 | 0.00 | 73 | 1015.8 |
| 20260504041505 | 12 | 222 | 0.0 | 0.0 | 0.00 | 0.00 | 0.00 | 72 | 1015.9 |
| 20260504041001 | 12 | 222 | 0.0 | 0.0 | 0.00 | 0.00 | 0.00 | 70 | 1016.2 |
| 20260504040459 | 12 | 222 | 0.0 | 0.0 | 0.00 | 0.00 | 0.00 | 71 | 1015.9 |
| 20260504035954 | 12 | 222 | 0.0 | 0.0 | 0.00 | 0.00 | 0.00 | 70 | 1016.1 |
| 20260504035452 | 12 | 222 | 0.0 | 0.0 | 0.00 | 0.00 | 0.00 | 70 | 1016.3 |
| 20260504034948 | 12 | 222 | 0.0 | 0.0 | 0.00 | 0.00 | 0.00 | 70 | 1016.2 |
| 20260504034446 | 12 | 222 | 0.0 | 0.0 | 0.00 | 0.00 | 0.00 | 70 | 1016.0 |
| 20260504033943 | 12 | 222 | 0.0 | 0.0 | 0.00 | 0.00 | 0.00 | 69 | 1016.2 |
| 20260504033441 | 12 | 222 | 0.0 | 0.0 | 0.00 | 0.00 | 0.00 | 68 | 1016.1 |
| 20260504032938 | 13 | 222 | 0.0 | 0.0 | 0.00 | 0.00 | 0.00 | 68 | 1016.3 |
| 20260504032434 | 13 | 222 | 0.0 | 0.0 | 0.00 | 0.00 | 0.00 | 67 | 1016.4 |
| 20260504031931 | 13 | 222 | 0.0 | 0.0 | 0.00 | 0.00 | 0.00 | 67 | 1016.4 |
| 20260504031428 | 13 | 222 | 0.0 | 0.0 | 0.00 | 0.00 | 0.00 | 66 | 1016.3 |
| 20260504030925 | 13 | 222 | 0.0 | 0.0 | 0.00 | 0.00 | 0.00 | 65 | 1016.1 |
| 20260504030422 | 13 | 222 | 0.0 | 0.0 | 0.00 | 0.00 | 0.00 | 65 | 1016.2 |
| 20260504025918 | 13 | 222 | 0.0 | 0.0 | 0.00 | 0.00 | 0.00 | 65 | 1016.2 |
| 20260504025415 | 13 | 222 | 0.0 | 0.0 | 0.00 | 0.00 | 0.00 | 64 | 1016.2 |
| 20260504024912 | 13 | 222 | 0.0 | 0.0 | 0.00 | 0.00 | 0.00 | 64 | 1016.3 |
| 20260504024409 | 14 | 222 | 0.0 | 0.0 | 0.00 | 0.00 | 0.00 | 64 | 1016.1 |
| 20260504023906 | 14 | 222 | 0.0 | 0.0 | 0.00 | 0.00 | 0.00 | 64 | 1016.1 |
| 20260504023402 | 14 | 222 | 0.0 | 0.0 | 0.00 | 0.00 | 0.00 | 62 | 1016.1 |
| 20260504022857 | 14 | 222 | 0.0 | 0.0 | 0.00 | 0.00 | 0.00 | 62 | 1016.0 |
| 20260504022355 | 14 | 222 | 0.0 | 0.0 | 0.00 | 0.00 | 0.00 | 62 | 1016.0 |
| 20260504021851 | 14 | 222 | 0.0 | 0.0 | 0.00 | 0.00 | 0.00 | 63 | 1016.2 |
| 20260504021348 | 15 | 222 | 0.0 | 0.0 | 0.00 | 0.00 | 0.00 | 62 | 1016.1 |
| 20260504020845 | 15 | 222 | 0.0 | 0.0 | 0.00 | 0.00 | 0.00 | 62 | 1015.8 |
| 20260504020342 | 15 | 222 | 0.0 | 0.0 | 0.00 | 0.00 | 0.00 | 60 | 1015.8 |
| 20260504015838 | 15 | 222 | 0.0 | 0.0 | 0.00 | 0.00 | 0.00 | 58 | 1015.8 |
| 20260504015334 | 15 | 222 | 0.0 | 0.0 | 0.00 | 0.00 | 0.00 | 57 | 1016.0 |
| 20260504014831 | 15 | 222 | 0.0 | 0.0 | 0.00 | 0.00 | 0.00 | 56 | 1015.9 |
| 20260504014327 | 15 | 222 | 0.0 | 0.0 | 0.00 | 0.00 | 0.00 | 55 | 1015.8 |
| 20260504013825 | 15 | 222 | 0.0 | 0.0 | 0.00 | 0.00 | 0.00 | 54 | 1015.9 |
| 20260504013322 | 15 | 222 | 0.0 | 0.0 | 0.00 | 0.00 | 0.00 | 61 | 1015.9 |
| 20260504012819 | 16 | 222 | 0.0 | 0.0 | 0.00 | 0.00 | 0.00 | 60 | 1015.8 |
| 20260504012317 | 16 | 222 | 0.0 | 0.0 | 0.00 | 0.00 | 0.00 | 58 | 1015.7 |
| 20260504011814 | 16 | 222 | 0.0 | 0.0 | 0.00 | 0.00 | 0.00 | 55 | 1015.8 |
| 20260504011310 | 16 | 222 | 0.0 | 0.0 | 0.00 | 0.00 | 0.00 | 54 | 1015.9 |
| 20260504010806 | 16 | 222 | 0.0 | 0.0 | 0.00 | 0.00 | 0.00 | 55 | 1015.9 |
| 20260504010301 | 17 | 222 | 0.0 | 0.0 | 0.00 | 0.00 | 0.00 | 53 | 1015.6 |
| 20260504005759 | 17 | 222 | 0.0 | 0.0 | 0.00 | 0.00 | 0.00 | 51 | 1015.6 |
| 20260504005256 | 17 | 222 | 0.0 | 0.0 | 0.00 | 0.00 | 0.00 | 54 | 1015.7 |
| 20260504004753 | 17 | 222 | 0.0 | 0.0 | 0.00 | 0.00 | 0.00 | 55 | 1015.6 |
| 20260504004251 | 18 | 222 | 0.0 | 0.0 | 0.00 | 0.00 | 0.00 | 52 | 1015.5 |
| 20260504003747 | 18 | 222 | 0.0 | 0.0 | 0.00 | 0.00 | 0.00 | 50 | 1015.4 |
| 20260504003244 | 19 | 222 | 0.0 | 0.0 | 0.00 | 0.00 | 0.00 | 48 | 1015.6 |
| 20260504002740 | 20 | 222 | 0.0 | 0.0 | 0.00 | 0.00 | 0.00 | 46 | 1015.4 |
| 20260504002237 | 20 | 215 | 0.0 | 0.0 | 0.00 | 0.00 | 0.00 | 45 | 1015.6 |
| 20260504001735 | 21 | 215 | 0.0 | 0.0 | 0.00 | 0.00 | 0.00 | 44 | 1015.6 |
| 20260504001232 | 21 | 215 | 0.0 | 0.0 | 0.00 | 0.00 | 0.00 | 46 | 1015.6 |
| 20260504000728 | 22 | 233 | 0.0 | 1.6 | 0.00 | 0.00 | 0.00 | 41 | 1015.7 |
| 20260504000226 | 22 | 237 | 0.0 | 0.0 | 0.00 | 0.00 | 0.00 | 40 | 1015.5 |
| 20260503235724 | 22 | 235 | 1.6 | 1.6 | 0.00 | 0.00 | 0.00 | 40 | 1015.8 |
| 20260503235221 | 22 | 230 | 0.0 | 1.6 | 0.00 | 0.00 | 0.00 | 37 | 1015.8 |
| 20260503234718 | 22 | 242 | 3.2 | 3.2 | 0.00 | 0.00 | 0.00 | 38 | 1015.8 |
| 20260503234216 | 22 | 246 | 1.6 | 1.6 | 0.00 | 0.00 | 0.00 | 38 | 1015.6 |
| 20260503233713 | 23 | 265 | 3.2 | 4.8 | 0.00 | 0.00 | 0.00 | 37 | 1015.6 |
| 20260503233209 | 23 | 232 | 1.6 | 3.2 | 0.00 | 0.00 | 0.00 | 36 | 1015.8 |
| 20260503232706 | 23 | 241 | 0.0 | 0.0 | 0.00 | 0.00 | 0.00 | 37 | 1015.9 |
| 20260503232203 | 23 | 225 | 0.0 | 1.6 | 0.00 | 0.00 | 0.00 | 38 | 1015.8 |
| 20260503231701 | 23 | 275 | 3.2 | 4.8 | 0.00 | 0.00 | 0.00 | 36 | 1015.9 |
| 20260503231157 | 23 | 242 | 1.6 | 1.6 | 0.00 | 0.00 | 0.00 | 37 | 1016.0 |
| 20260503230654 | 22 | 244 | 1.6 | 3.2 | 0.00 | 0.00 | 0.00 | 37 | 1016.1 |
| 20260503230151 | 22 | 214 | 1.6 | 1.6 | 0.00 | 0.00 | 0.00 | 41 | 1016.1 |
| 20260503225648 | 23 | 268 | 3.2 | 4.8 | 0.00 | 0.00 | 0.00 | 36 | 1016.2 |
| 20260503225148 | 23 | 255 | 3.2 | 3.2 | 0.00 | 0.00 | 0.00 | 37 | 1016.0 |
| 20260503224646 | 23 | 342 | 1.6 | 3.2 | 0.00 | 0.00 | 0.00 | 36 | 1016.2 |
| 20260503224144 | 23 | 233 | 1.6 | 1.6 | 0.00 | 0.00 | 0.00 | 36 | 1016.3 |
| 20260503223641 | 23 | 246 | 3.2 | 4.8 | 0.00 | 0.00 | 0.00 | 36 | 1016.3 |
| 20260503223138 | 23 | 238 | 1.6 | 1.6 | 0.00 | 0.00 | 0.00 | 37 | 1016.4 |
| 20260503222635 | 23 | 247 | 1.6 | 3.2 | 0.00 | 0.00 | 0.00 | 38 | 1016.4 |
| 20260503222132 | 23 | 298 | 3.2 | 4.8 | 0.00 | 0.00 | 0.00 | 35 | 1016.2 |
| 20260503221631 | 23 | 263 | 1.6 | 1.6 | 0.00 | 0.00 | 0.00 | 36 | 1016.5 |
| 20260503221128 | 24 | 235 | 1.6 | 3.2 | 0.00 | 0.00 | 0.00 | 35 | 1016.3 |
| 20260503220624 | 23 | 236 | 1.6 | 1.6 | 0.00 | 0.00 | 0.00 | 36 | 1016.5 |
| 20260503220121 | 23 | 244 | 4.8 | 4.8 | 0.00 | 0.00 | 0.00 | 35 | 1016.7 |
| 20260503215618 | 23 | 231 | 3.2 | 3.2 | 0.00 | 0.00 | 0.00 | 36 | 1016.6 |
| 20260503215115 | 23 | 264 | 6.4 | 6.4 | 0.00 | 0.00 | 0.00 | 35 | 1016.7 |
| 20260503214614 | 23 | 259 | 8.0 | 12.9 | 0.00 | 0.00 | 0.00 | 35 | 1016.9 |
| 20260503214109 | 23 | 269 | 3.2 | 6.4 | 0.00 | 0.00 | 0.00 | 36 | 1016.8 |
| 20260503213608 | 23 | 281 | 4.8 | 6.4 | 0.00 | 0.00 | 0.00 | 35 | 1016.8 |
| 20260503213104 | 23 | 169 | 1.6 | 3.2 | 0.00 | 0.00 | 0.00 | 34 | 1017.2 |
| 20260503212601 | 23 | 189 | 3.2 | 3.2 | 0.00 | 0.00 | 0.00 | 34 | 1017.1 |
| 20260503212059 | 23 | 304 | 3.2 | 4.8 | 0.00 | 0.00 | 0.00 | 34 | 1017.2 |
| 20260503211556 | 24 | 245 | 3.2 | 4.8 | 0.00 | 0.00 | 0.00 | 34 | 1017.3 |
| 20260503211051 | 23 | 300 | 3.2 | 3.2 | 0.00 | 0.00 | 0.00 | 34 | 1017.3 |
| 20260503210548 | 23 | 291 | 1.6 | 3.2 | 0.00 | 0.00 | 0.00 | 34 | 1017.4 |
| 20260503210044 | 23 | 225 | 3.2 | 4.8 | 0.00 | 0.00 | 0.00 | 35 | 1017.5 |